Flag for Canada Weather past 2 weeks in Sherbrooke, Quebec, Canada

Now
14 °F

Partly sunny.


Feels Like: 14 °F
Forecast: 8 / 24 °F
Wind: 2 mph from North

Location: Sherbrooke

Current Time: Dec 21, 2014 at 12:33:11 PM

Latest Report: Dec 21, 2014 at 12:00 PM


Visibility: 9 mi

Pressure: 30.37 "Hg

Humidity: 92%

Dew point: 12 °F

Location of SherbrookeLocation

Historic Weather in Sherbrooke — Graph

°F

Sherbrooke temperature yesterday

Maximum temperature yesterday: 16 °F (at 2:00 PM)
Minimum temperature yesterday: 3 °F (at 12:00 AM)
Average temperature yesterday: 10 °F

Past Weeks' High & Low Weather Summary

 TemperatureHumidityPressure
High36 °F (Dec 11, 11:00 AM)100% (Dec 6, 11:00 AM)30.84 "Hg (Dec 6, 11:00 AM)
Low-2 °F (Dec 7, 9:00 PM)44% (Dec 7, 2:00 PM)29.48 "Hg (Dec 11, 1:00 AM)
Average24 °F92%30.06 "Hg
* Reported Dec 6 11:00 AM — Dec 21 11:03 AM, Sherbrooke, Weather by CustomWeather, © 2014

Note: Actual official high and low records may vary slightly from our data, if they occured in-between our weather recording intervals... More about our weather records

Advertising

Sherbrooke weather history for previous 24 hours

 ConditionsComfort  
Time TempWeatherWind HumidityBarometerVisibility
11:03 AM
Dec 21
12 °FSunny.No wind92%30.39 "Hg8 mi
10:00 AM9 °FSunny.No wind92%30.40 "Hg9 mi
9:00 AM7 °FLight snow. Low clouds.2 mph92%30.39 "Hg1 mi
8:00 AM7 °FHeavy snow. Ice fog.2 mph92%30.38 "Hg0 mi
7:58 AM7 °FHeavy snow. Low clouds.2 mph92%30.38 "Hg0 mi
7:00 AM5 °FLight snow. Low clouds.5 mph92%30.37 "Hg2 mi
6:04 AM7 °FIce fog.3 mph92%30.37 "Hg2 mi
5:04 AM9 °FIce fog.3 mph92%30.36 "Hg1 mi
4:00 AM10 °FIce fog.3 mph92%30.36 "Hg4 mi
3:03 AM10 °FIce fog.2 mph92%30.36 "Hg1 mi
2:00 AM10 °FIce fog.No wind92%30.36 "Hg1 mi
1:58 AM10 °FIce fog.No wind92%30.36 "Hg1 mi
1:03 AM10 °FIce fog.5 mph100%30.35 "Hg2 mi
12:00 AM12 °FIce fog.5 mph92%30.36 "Hg1 mi
11:00 PM
Dec 20
12 °FIce fog.3 mph100%30.36 "Hg0 mi
10:02 PM14 °FIce fog.3 mph92%30.36 "Hg1 mi
9:03 PM12 °FIce fog.5 mph92%30.35 "Hg1 mi
8:00 PM10 °FIce fog.3 mph92%30.35 "Hg5 mi
7:00 PM10 °FLow clouds.2 mph92%30.36 "Hg7 mi
6:00 PM9 °FIce fog.5 mph92%30.36 "Hg2 mi
5:00 PM10 °FClear.No wind92%30.35 "Hg7 mi
4:00 PM14 °FSunny.2 mph92%30.34 "Hg8 mi
3:00 PM16 °FSunny.No wind100%30.33 "Hg9 mi
2:00 PM16 °FSunny.No wind93%30.33 "Hg9 mi
1:00 PM14 °FPassing clouds.2 mph100%30.33 "Hg8 mi
12:02 PM12 °FLight snow. Low clouds.2 mph92%30.34 "Hg6 mi
Weather by CustomWeather, © 2014

See weather overviewHow to use our weather pages